When you browse on this site, cookies collect data to enhance your experience and personalize the content and advertising you see.
Visit our Privacy Policy to learn more. By continuing to use the site, you agree to this use of cookies and data.
  • In France
  • List of Countries
  • For 7 days
  • Water Temperature
  • Weather Map
  • Weather Widgets
  • user-avatar
    Login

    Hourly Weather Malanville

    Today, 21 September, Saturday

    Time Temperature Precipitation Wind Pressure Humidity
    00:00 +26°C° 0 mm 2 mps 744 mmHg 88%
    01:00 +26°C° 0 mm 2 mps 743 mmHg 87%
    02:00 +25°C° 0 mm 2 mps 743 mmHg 85%
    03:00 +25°C° 0 mm 2 mps 743 mmHg 84%
    04:00 +25°C° 0 mm 2 mps 743 mmHg 83%
    05:00 +25°C° 0 mm 2 mps 744 mmHg 83%
    06:00 +25°C° 0 mm 2 mps 744 mmHg 82%
    07:00 +27°C° 0 mm 2 mps 744 mmHg 75%
    08:00 +29°C° 0 mm 3 mps 745 mmHg 68%
    09:00 +31°C° 0 mm 3 mps 745 mmHg 62%
    10:00 +34°C° 0 mm 2 mps 744 mmHg 56%
    11:00 +35°C° 0 mm 2 mps 744 mmHg 51%
    12:00 +36°C° 0 mm 1 mps 744 mmHg 46%
    13:00 +36°C° 0 mm 1 mps 743 mmHg 44%
    14:00 +37°C° 0 mm 1 mps 742 mmHg 42%
    15:00 +37°C° 0 mm 1 mps 742 mmHg 39%
    16:00 +35°C° 0 mm 1 mps 742 mmHg 45%
    17:00 +34°C° 0 mm 1 mps 742 mmHg 50%
    18:00 +32°C° 0 mm 1 mps 742 mmHg 55%
    19:00 +31°C° 0 mm 1 mps 742 mmHg 57%
    20:00 +31°C° 0 mm 2 mps 743 mmHg 58%
    21:00 +30°C° 0 mm 2 mps 743 mmHg 60%
    22:00 +30°C° 0 mm 2 mps 743 mmHg 63%
    23:00 +29°C° 0 mm 3 mps 743 mmHg 66%

    Tomorrow, 22 September, Sunday

    Time Temperature Precipitation Wind Pressure Humidity
    00:00 +29°C° 0 mm 3 mps 742 mmHg 69%
    01:00 +28°C° 0 mm 3 mps 742 mmHg 71%
    02:00 +28°C° 0 mm 3 mps 742 mmHg 74%
    03:00 +27°C° 0 mm 2 mps 741 mmHg 76%
    04:00 +27°C° 0 mm 2 mps 742 mmHg 78%
    05:00 +27°C° 0 mm 2 mps 742 mmHg 80%
    06:00 +26°C° 0 mm 2 mps 743 mmHg 82%
    07:00 +28°C° 0 mm 3 mps 743 mmHg 75%
    08:00 +30°C° 0 mm 3 mps 743 mmHg 69%
    09:00 +33°C° 0 mm 3 mps 744 mmHg 62%
    10:00 +35°C° 0 mm 3 mps 743 mmHg 57%
    11:00 +36°C° 0 mm 2 mps 743 mmHg 51%
    12:00 +37°C° 0 mm 1 mps 742 mmHg 45%
    13:00 +37°C° 0 mm 1 mps 742 mmHg 42%
    14:00 +39°C° 0 mm 1 mps 741 mmHg 40%
    15:00 +39°C° 0 mm 1 mps 741 mmHg 37%
    16:00 +36°C° 0 mm 1 mps 741 mmHg 41%
    17:00 +34°C° 0 mm 1 mps 741 mmHg 46%
    18:00 +34°C° 0 mm 2 mps 741 mmHg 51%
    19:00 +32°C° 0 mm 2 mps 741 mmHg 54%
    20:00 +31°C° 0 mm 2 mps 742 mmHg 58%
    21:00 +31°C° 0 mm 3 mps 742 mmHg 61%
    22:00 +30°C° 0 mm 3 mps 742 mmHg 64%
    23:00 +29°C° 0 mm 3 mps 742 mmHg 68%

    Day after tomorrow, 23 September, Monday

    Time Temperature Precipitation Wind Pressure Humidity
    00:00 +29°C° 0 mm 2 mps 742 mmHg 71%
    01:00 +28°C° 0 mm 2 mps 742 mmHg 74%
    02:00 +28°C° 0 mm 2 mps 741 mmHg 76%
    03:00 +27°C° 0 mm 2 mps 741 mmHg 78%
    04:00 +27°C° 0 mm 2 mps 742 mmHg 81%
    05:00 +27°C° 0 mm 2 mps 742 mmHg 83%
    06:00 +27°C° 0 mm 2 mps 742 mmHg 86%
    07:00 +29°C° 0 mm 3 mps 743 mmHg 79%
    08:00 +31°C° 0 mm 3 mps 743 mmHg 71%
    09:00 +34°C° 0 mm 3 mps 744 mmHg 64%
    10:00 +35°C° 0 mm 3 mps 743 mmHg 58%
    11:00 +36°C° 0 mm 2 mps 743 mmHg 52%
    12:00 +37°C° 0 mm 1 mps 743 mmHg 46%
    13:00 +37°C° 0 mm 1 mps 742 mmHg 43%
    14:00 +39°C° 0 mm 1 mps 741 mmHg 40%
    15:00 +36°C° 0 mm 0 mps 741 mmHg 36%
    16:00 +37°C° 0 mm 1 mps 741 mmHg 42%
    17:00 +35°C° 0 mm 1 mps 741 mmHg 47%
    18:00 +34°C° 0 mm 2 mps 741 mmHg 53%
    19:00 +33°C° 0 mm 3 mps 742 mmHg 60%
    20:00 +31°C° 0 mm 3 mps 742 mmHg 67%
    21:00 +30°C° 0 mm 4 mps 743 mmHg 75%
    22:00 +30°C° 0 mm 4 mps 743 mmHg 73%
    23:00 +29°C° 0 mm 5 mps 743 mmHg 72%

    24 September, Tuesday

    Time Temperature Precipitation Wind Pressure Humidity
    00:00 +29°C° 0 mm 5 mps 743 mmHg 71%
    01:00 +28°C° 0.1 mm 5 mps 743 mmHg 74%
    02:00 +26°C° 0.1 mm 4 mps 743 mmHg 76%
    03:00 +25°C° 0.1 mm 3 mps 742 mmHg 79%
    04:00 +25°C° 0 mm 2 mps 743 mmHg 81%
    05:00 +25°C° 0 mm 2 mps 743 mmHg 83%
    06:00 +24°C° 0 mm 1 mps 743 mmHg 85%
    07:00 +26°C° 0 mm 1 mps 743 mmHg 77%
    08:00 +28°C° 0 mm 1 mps 744 mmHg 68%
    09:00 +30°C° 0 mm 1 mps 744 mmHg 60%
    10:00 +32°C° 0 mm 1 mps 744 mmHg 54%
    11:00 +34°C° 0 mm 1 mps 743 mmHg 48%
    12:00 +36°C° 0 mm 1 mps 743 mmHg 42%
    13:00 +37°C° 0 mm 1 mps 742 mmHg 41%
    14:00 +37°C° 0 mm 1 mps 742 mmHg 40%
    15:00 +39°C° 0 mm 1 mps 741 mmHg 38%
    16:00 +36°C° 0 mm 1 mps 742 mmHg 45%
    17:00 +34°C° 0 mm 1 mps 742 mmHg 51%
    18:00 +32°C° 0 mm 2 mps 742 mmHg 58%
    19:00 +31°C° 0 mm 2 mps 742 mmHg 60%
    20:00 +30°C° 0 mm 2 mps 743 mmHg 63%
    21:00 +30°C° 0 mm 3 mps 743 mmHg 65%
    22:00 +29°C° 0 mm 3 mps 743 mmHg 67%
    23:00 +29°C° 0 mm 3 mps 743 mmHg 70%

    25 September, Wednesday

    Time Temperature Precipitation Wind Pressure Humidity
    00:00 +29°C° 0 mm 4 mps 743 mmHg 72%
    01:00 +28°C° 0 mm 4 mps 743 mmHg 75%
    02:00 +28°C° 0 mm 4 mps 742 mmHg 79%
    03:00 +27°C° 0 mm 4 mps 742 mmHg 82%
    04:00 +27°C° 0 mm 3 mps 742 mmHg 84%
    05:00 +27°C° 0 mm 3 mps 743 mmHg 86%
    06:00 +26°C° 0 mm 2 mps 743 mmHg 87%
    07:00 +28°C° 0 mm 3 mps 743 mmHg 79%
    08:00 +30°C° 0 mm 3 mps 744 mmHg 71%
    09:00 +33°C° 0 mm 3 mps 744 mmHg 63%
    10:00 +34°C° 0 mm 3 mps 744 mmHg 58%
    11:00 +36°C° 0 mm 3 mps 743 mmHg 53%
    12:00 +37°C° 0 mm 3 mps 743 mmHg 48%
    13:00 +37°C° 0 mm 2 mps 742 mmHg 46%
    14:00 +38°C° 0 mm 2 mps 742 mmHg 44%
    15:00 +38°C° 0 mm 2 mps 741 mmHg 43%
    16:00 +37°C° 0 mm 2 mps 741 mmHg 47%
    17:00 +35°C° 0 mm 2 mps 741 mmHg 52%
    18:00 +34°C° 0 mm 2 mps 741 mmHg 56%
    19:00 +33°C° 0 mm 3 mps 741 mmHg 61%
    20:00 +31°C° 0 mm 3 mps 742 mmHg 66%
    21:00 +30°C° 0 mm 3 mps 742 mmHg 71%
    22:00 +30°C° 0 mm 3 mps 742 mmHg 73%
    23:00 +29°C° 0 mm 3 mps 743 mmHg 76%

    26 September, Thursday

    Time Temperature Precipitation Wind Pressure Humidity
    00:00 +29°C° 0 mm 4 mps 743 mmHg 78%
    01:00 +28°C° 0.1 mm 3 mps 743 mmHg 80%
    02:00 +28°C° 0.1 mm 3 mps 743 mmHg 82%
    03:00 +27°C° 0.1 mm 3 mps 742 mmHg 84%
    04:00 +27°C° 0 mm 3 mps 743 mmHg 85%
    05:00 +27°C° 0 mm 3 mps 743 mmHg 85%
    06:00 +27°C° 0 mm 3 mps 744 mmHg 86%
    07:00 +28°C° 0 mm 3 mps 744 mmHg 80%
    08:00 +30°C° 0 mm 4 mps 745 mmHg 74%
    09:00 +32°C° 0 mm 4 mps 745 mmHg 68%
    10:00 +34°C° 0 mm 4 mps 745 mmHg 63%
    11:00 +35°C° 0 mm 4 mps 744 mmHg 58%
    12:00 +36°C° 0 mm 4 mps 744 mmHg 53%
    13:00 +36°C° 0 mm 3 mps 743 mmHg 54%
    14:00 +36°C° 0 mm 3 mps 742 mmHg 54%
    15:00 +36°C° 0 mm 2 mps 742 mmHg 54%
    16:00 +35°C° 0 mm 2 mps 742 mmHg 57%
    17:00 +34°C° 0 mm 2 mps 742 mmHg 60%
    18:00 +32°C° 0 mm 2 mps 742 mmHg 63%
    19:00 +31°C° 0 mm 3 mps 742 mmHg 66%
    20:00 +30°C° 0 mm 3 mps 743 mmHg 69%
    21:00 +30°C° 0 mm 3 mps 743 mmHg 73%
    22:00 +29°C° 0.2 mm 3 mps 743 mmHg 77%
    23:00 +28°C° 0.2 mm 2 mps 743 mmHg 81%
    Show more